sat.trackr.live / text

‹ back to catalog

STARLINK-4043

NORAD 52836 · 2022-062G

PAYLOAD ACTIVE UNKNOWN

§ Identity

Operator
Country
US
Launch date
2022-06-17
Launch site
AFETR
Launch vehicle
Mass (kg)
RCS (m²)

Purposes: comms

External: N2YO · Heavens-Above · Gunter

§ Orbital elements

Epoch: 2026-09-20T04:00:03.000096Z

Period
94.01 min
Inclination
53.1602°
Eccentricity
0.0001266
Mean motion
15.31699359 rev/d
Perigee alt
469.9 km
Apogee alt
471.6 km
Semi-major
6,848.9 km
B*
8.6251e-5
RAAN
210.7502°
Arg perigee
76.1707°
Mean anomaly
228.9041°
Rev number
588

§ Raw data

STARLINK-40431 52836U 22062G   26263.16670139  .00002312  00000+0  86251-4 0  99912 52836  53.1602 210.7502 0001266  76.1707 228.9041 15.31699359  5881

JSON: /api/v1/satellites/52836 · /tle

For live sub-satellite position, see the globe view (requires WebGL).

§ Visibility from observer

Set your observer location to see the next 7 days of passes ≥ 10°. The values pass through the URL so the page stays shareable.

No JS? Fill the form by hand. The geolocation button needs JavaScript.